Flag for India Weather past 2 weeks in Wardha, Maharashtra, India

Now
70 °F

Partly cloudy.


Feels Like: 70 °F
Forecast: 67 / 79 °F
Wind: No wind

Location: Nagpur Sonegaon

Current Time: Oct 25, 2014 at 6:39:54 AM

Latest Report: Oct 25, 2014 at 5:40 AM


Visibility: 2 mi

Pressure: 29.92 "Hg

Humidity: 83%

Dew point: 64 °F

Location of WardhaLocation

Historic Weather in Wardha — Graph

°F

Wardha temperature yesterday

Maximum temperature yesterday: 93 °F (at 1:40 PM)
Minimum temperature yesterday: 64 °F (at 5:10 AM)
Average temperature yesterday: 78 °F

Past Weeks' High & Low Weather Summary

 TemperatureHumidityPressure
High97 °F (Oct 14, 4:40 PM)100% (Oct 23, 10:40 PM)30.09 "Hg (Oct 23, 10:40 PM)
Low64 °F (Oct 23, 6:10 AM)28% (Oct 12, 1:40 PM)29.56 "Hg (Oct 13, 2:40 PM)
Average82 °F64%29.89 "Hg
* Reported Oct 10 5:10 AM — Oct 25 3:10 AM, Wardha, Weather by CustomWeather, © 2014

Note: Actual official high and low records may vary slightly from our data, if they occured in-between our weather recording intervals... More about our weather records

Advertising

Wardha weather history for previous 24 hours

 ConditionsComfort  
Time TempWeatherWind HumidityBarometerVisibility
3:10 AM
Oct 25
73 °FPartly cloudy.2 mph69%29.92 "Hg2 mi
7:10 PM
Oct 24
79 °FPassing clouds.No wind54%29.92 "Hg3 mi
6:40 PM81 °FPassing clouds.No wind51%29.89 "Hg3 mi
6:10 PM82 °FScattered clouds.2 mph45%29.89 "Hg3 mi
5:40 PM84 °FScattered clouds.5 mph48%29.89 "Hg3 mi
5:10 PM88 °FScattered clouds.2 mph38%29.86 "Hg3 mi
4:10 PM90 °FScattered clouds.5 mph36%29.86 "Hg4 mi
3:40 PM90 °FScattered clouds.5 mph31%29.86 "Hg4 mi
3:10 PM93 °FScattered clouds.6 mph34%29.86 "Hg4 mi
2:40 PM91 °FScattered clouds.6 mph34%29.86 "Hg4 mi
2:10 PM91 °FPassing clouds.6 mph32%29.89 "Hg4 mi
1:40 PM93 °FPassing clouds.3 mph32%29.89 "Hg4 mi
11:40 AM88 °FClear.No wind40%29.95 "Hg4 mi
11:10 AM88 °FClear.2 mph40%29.98 "Hg4 mi
10:40 AM84 °FPassing clouds.2 mph51%29.98 "Hg4 mi
10:10 AM84 °FPassing clouds.7 mph51%30.01 "Hg4 mi
9:10 AM79 °FClear.5 mph58%30.01 "Hg4 mi
8:10 AM72 °FPassing clouds.5 mph69%30.01 "Hg3 mi
7:10 AM68 °FHaze.No wind73%29.98 "Hg2 mi
6:40 AM66 °FHaze.No wind78%29.98 "Hg2 mi
6:10 AM64 °FHaze.No wind78%29.95 "Hg2 mi
Weather by CustomWeather, © 2014

See weather overviewHow to use our weather pages